Find Starlink 32241

NORAD ID: 60437 Int'l Des: 2024-144 Owner: SPXS Country: US Constellation: starlink operational
LEOCIRCULAR

当前视图

正在加载3D地球...

About Starlink 32241

Starlink 32241 (NORAD 60437) is a starlink constellation satellite (v2 mini) launched Aug 12, 2024 by SPXS of US. It operates in LEO, CIRCULAR orbit with a mass of 730.00 kg.

关于 Starlink 32241

正在加载描述...

即将过境

Passes for default location (London). Set your location on the main map for personalized predictions.

高度历史

Loading altitude history...

两行轨道根数

1 60437U 24144N 26168.13150148 .00000572 00000-0 28064-4 0 9999
2 60437 53.1620 113.8585 0001493 104.4095 255.7073 15.34391782104557
Epoch: Jun 17, 2026 • Age: 31 hours

当前状态

高度 470.2 km
速度 7.63 km/s
星下点 -23.37°S, 27.95°E
发射日期 Aug 12, 2024
运行时间 1.8 years
类型 internet

技术详情

分类 Payload
质量 730.00 kg
干质量 700.00 kg
总质量 730.00 kg
长度 0.30 m
直径 4.10 m
跨度 29.00 m
形状 Box + pan
制造商 SPXS
平台类型 Starlink V2M
阶段状态 In Orbit
所有者/国家 SPXS/US

Most Searched